When you browse on this site, cookies collect data to enhance your experience and personalize the content and advertising you see.
Visit our Privacy Policy to learn more. By continuing to use the site, you agree to this use of cookies and data.
  • In Portugal
  • List of Countries
  • For 7 days
  • Water Temperature
  • Satellite Maps
  • Weather Map
  • Weather Widgets
  • user-avatar
    Login

    Hourly Weather Zaranj

    Today, 17 December, Monday

    Time Temperature Precipitation Wind Pressure Humidity
    00:00 +13°C° 0 mm 1 mps 725 mmHg 37%
    01:00 +13°C° 0 mm 1 mps 725 mmHg 38%
    02:00 +11°C° 0 mm 0 mps 725 mmHg 39%
    03:00 +11°C° 0 mm 0 mps 725 mmHg 41%
    04:00 +10°C° 0 mm 0 mps 725 mmHg 45%
    05:00 +10°C° 0 mm 0 mps 725 mmHg 46%
    06:00 +10°C° 0 mm 0 mps 725 mmHg 47%
    07:00 +9°C° 0 mm 0 mps 725 mmHg 48%
    08:00 +12°C° 0 mm 0 mps 725 mmHg 41%
    09:00 +15°C° 0 mm 1 mps 726 mmHg 35%
    10:00 +18°C° 0 mm 1 mps 726 mmHg 29%
    11:00 +19°C° 0 mm 1 mps 726 mmHg 26%
    12:00 +20°C° 0 mm 1 mps 725 mmHg 23%
    13:00 +21°C° 0 mm 1 mps 725 mmHg 21%
    14:00 +21°C° 0 mm 1 mps 724 mmHg 20%
    15:00 +21°C° 0 mm 1 mps 724 mmHg 20%
    16:00 +21°C° 0 mm 1 mps 724 mmHg 19%
    17:00 +20°C° 0 mm 1 mps 724 mmHg 21%
    18:00 +17°C° 0 mm 2 mps 724 mmHg 24%
    19:00 +16°C° 0 mm 2 mps 724 mmHg 26%
    20:00 +16°C° 0 mm 2 mps 724 mmHg 26%
    21:00 +15°C° 0 mm 1 mps 724 mmHg 27%
    22:00 +14°C° 0 mm 1 mps 724 mmHg 28%
    23:00 +14°C° 0 mm 1 mps 724 mmHg 28%

    Tomorrow, 18 December, Tuesday

    Time Temperature Precipitation Wind Pressure Humidity
    00:00 +13°C° 0 mm 1 mps 724 mmHg 29%
    01:00 +13°C° 0 mm 1 mps 724 mmHg 29%
    02:00 +13°C° 0 mm 1 mps 723 mmHg 29%
    03:00 +12°C° 0 mm 1 mps 723 mmHg 29%
    04:00 +12°C° 0 mm 1 mps 723 mmHg 29%
    05:00 +11°C° 0 mm 1 mps 723 mmHg 29%
    06:00 +11°C° 0 mm 1 mps 723 mmHg 28%
    07:00 +11°C° 0 mm 1 mps 723 mmHg 28%
    08:00 +13°C° 0 mm 1 mps 723 mmHg 24%
    09:00 +15°C° 0 mm 1 mps 724 mmHg 20%
    10:00 +18°C° 0 mm 1 mps 724 mmHg 17%
    11:00 +18°C° 0 mm 2 mps 723 mmHg 15%
    12:00 +19°C° 0 mm 2 mps 722 mmHg 13%
    13:00 +20°C° 0 mm 2 mps 722 mmHg 11%
    14:00 +20°C° 0 mm 2 mps 721 mmHg 11%
    15:00 +22°C° 0 mm 1 mps 721 mmHg 10%
    16:00 +22°C° 0 mm 1 mps 720 mmHg 10%
    17:00 +20°C° 0 mm 1 mps 720 mmHg 11%
    18:00 +19°C° 0 mm 1 mps 720 mmHg 12%
    19:00 +16°C° 0 mm 1 mps 720 mmHg 14%
    20:00 +16°C° 0 mm 1 mps 720 mmHg 14%
    21:00 +15°C° 0 mm 2 mps 720 mmHg 15%
    22:00 +15°C° 0 mm 2 mps 720 mmHg 15%
    23:00 +15°C° 0 mm 2 mps 720 mmHg 16%

    Day after tomorrow, 19 December, Wednesday

    Time Temperature Precipitation Wind Pressure Humidity
    00:00 +15°C° 0 mm 2 mps 720 mmHg 16%
    01:00 +14°C° 0 mm 2 mps 720 mmHg 17%
    02:00 +14°C° 0 mm 2 mps 720 mmHg 18%
    03:00 +13°C° 0 mm 2 mps 720 mmHg 18%
    04:00 +13°C° 0 mm 2 mps 721 mmHg 19%
    05:00 +13°C° 0 mm 2 mps 721 mmHg 20%
    06:00 +12°C° 0 mm 2 mps 721 mmHg 21%
    07:00 +12°C° 0 mm 1 mps 722 mmHg 22%
    08:00 +14°C° 0 mm 2 mps 722 mmHg 19%
    09:00 +16°C° 0 mm 3 mps 723 mmHg 17%
    10:00 +18°C° 0 mm 3 mps 724 mmHg 14%
    11:00 +19°C° 0 mm 4 mps 724 mmHg 15%
    12:00 +20°C° 0 mm 5 mps 723 mmHg 15%
    13:00 +21°C° 0 mm 6 mps 723 mmHg 15%
    14:00 +21°C° 0 mm 7 mps 723 mmHg 18%
    15:00 +20°C° 0 mm 7 mps 723 mmHg 20%
    16:00 +20°C° 0 mm 7 mps 723 mmHg 23%
    17:00 +19°C° 0 mm 6 mps 723 mmHg 27%
    18:00 +16°C° 0 mm 6 mps 724 mmHg 31%
    19:00 +15°C° 0 mm 6 mps 724 mmHg 35%
    20:00 +15°C° 0 mm 5 mps 724 mmHg 37%
    21:00 +14°C° 0 mm 5 mps 725 mmHg 38%
    22:00 +13°C° 0 mm 5 mps 725 mmHg 40%
    23:00 +13°C° 0 mm 5 mps 725 mmHg 41%

    20 December, Thursday

    Time Temperature Precipitation Wind Pressure Humidity
    00:00 +12°C° 0 mm 5 mps 725 mmHg 43%
    01:00 +12°C° 0 mm 5 mps 724 mmHg 44%
    02:00 +12°C° 0 mm 5 mps 724 mmHg 45%
    03:00 +11°C° 0 mm 4 mps 724 mmHg 46%
    04:00 +11°C° 0 mm 4 mps 724 mmHg 47%
    05:00 +11°C° 0 mm 4 mps 725 mmHg 48%
    06:00 +10°C° 0 mm 4 mps 725 mmHg 49%
    07:00 +10°C° 0 mm 3 mps 725 mmHg 50%
    08:00 +11°C° 0 mm 3 mps 725 mmHg 45%
    09:00 +13°C° 0 mm 3 mps 725 mmHg 40%
    10:00 +14°C° 0 mm 3 mps 726 mmHg 35%
    11:00 +16°C° 0 mm 3 mps 725 mmHg 32%
    12:00 +17°C° 0 mm 3 mps 724 mmHg 29%
    13:00 +18°C° 0 mm 3 mps 724 mmHg 26%
    14:00 +19°C° 0 mm 2 mps 723 mmHg 25%
    15:00 +19°C° 0 mm 2 mps 723 mmHg 24%
    16:00 +19°C° 0 mm 2 mps 722 mmHg 24%
    17:00 +18°C° 0 mm 1 mps 722 mmHg 26%
    18:00 +16°C° 0 mm 1 mps 722 mmHg 29%
    19:00 +15°C° 0 mm 1 mps 723 mmHg 31%
    20:00 +14°C° 0 mm 1 mps 722 mmHg 32%
    21:00 +14°C° 0 mm 1 mps 722 mmHg 34%
    22:00 +13°C° 0 mm 1 mps 722 mmHg 35%
    23:00 +12°C° 0 mm 0 mps 722 mmHg 36%

    21 December, Friday

    Time Temperature Precipitation Wind Pressure Humidity
    00:00 +11°C° 0 mm 0 mps 721 mmHg 37%
    01:00 +11°C° 0 mm 0 mps 721 mmHg 39%
    02:00 +10°C° 0 mm 0 mps 721 mmHg 39%
    03:00 +11°C° 0 mm 1 mps 720 mmHg 40%
    04:00 +11°C° 0 mm 1 mps 720 mmHg 41%
    05:00 +11°C° 0 mm 1 mps 720 mmHg 41%
    06:00 +10°C° 0 mm 1 mps 721 mmHg 41%
    07:00 +10°C° 0 mm 1 mps 721 mmHg 42%
    08:00 +12°C° 0 mm 1 mps 721 mmHg 37%
    09:00 +14°C° 0 mm 1 mps 721 mmHg 32%
    10:00 +16°C° 0 mm 1 mps 722 mmHg 27%
    11:00 +18°C° 0 mm 1 mps 721 mmHg 25%
    12:00 +19°C° 0 mm 1 mps 720 mmHg 23%
    13:00 +20°C° 0 mm 1 mps 719 mmHg 20%
    14:00 +21°C° 0 mm 1 mps 719 mmHg 20%
    15:00 +21°C° 0 mm 1 mps 719 mmHg 20%
    16:00 +21°C° 0 mm 1 mps 718 mmHg 19%
    17:00 +20°C° 0 mm 1 mps 718 mmHg 21%
    18:00 +17°C° 0 mm 2 mps 718 mmHg 23%
    19:00 +16°C° 0 mm 2 mps 719 mmHg 24%
    20:00 +16°C° 0 mm 2 mps 719 mmHg 25%
    21:00 +16°C° 0 mm 2 mps 718 mmHg 26%
    22:00 +15°C° 0 mm 2 mps 718 mmHg 27%
    23:00 +15°C° 0 mm 2 mps 718 mmHg 27%

    22 December, Saturday

    Time Temperature Precipitation Wind Pressure Humidity
    00:00 +14°C° 0 mm 2 mps 718 mmHg 28%
    01:00 +14°C° 0 mm 2 mps 717 mmHg 28%
    02:00 +13°C° 0 mm 2 mps 717 mmHg 29%
    03:00 +13°C° 0 mm 2 mps 717 mmHg 29%
    04:00 +13°C° 0 mm 2 mps 717 mmHg 30%
    05:00 +11°C° 0 mm 3 mps 717 mmHg 30%
    06:00 +11°C° 0 mm 3 mps 718 mmHg 30%
    07:00 +11°C° 0 mm 3 mps 718 mmHg 31%
    08:00 +12°C° 0 mm 4 mps 718 mmHg 28%
    09:00 +14°C° 0 mm 4 mps 719 mmHg 26%
    10:00 +17°C° 0 mm 4 mps 719 mmHg 23%
    11:00 +17°C° 0 mm 5 mps 719 mmHg 22%
    12:00 +17°C° 0 mm 5 mps 719 mmHg 21%
    13:00 +19°C° 0 mm 5 mps 718 mmHg 19%
    14:00 +19°C° 0 mm 5 mps 718 mmHg 20%
    15:00 +19°C° 0 mm 5 mps 718 mmHg 21%
    16:00 +19°C° 0 mm 5 mps 718 mmHg 22%
    17:00 +17°C° 0 mm 6 mps 719 mmHg 28%
    18:00 +15°C° 0 mm 6 mps 719 mmHg 33%
    19:00 +14°C° 0 mm 7 mps 720 mmHg 38%
    20:00 +13°C° 0 mm 6 mps 720 mmHg 41%
    21:00 +13°C° 0 mm 6 mps 720 mmHg 43%
    22:00 +11°C° 0 mm 6 mps 720 mmHg 46%
    23:00 +12°C° 0 mm 5 mps 720 mmHg 47%
    Show more